Hovedside
METAR-TAF:

METAR-TAF

Lufthavner :

Nyslott, Finland

Nyslott lufthavn

breddegrad: 61-57N, lengdegrad: 028-57E, høyde over havet: 95 m

Gjeldene værobservasjon

Denne rapporten ble laget for 38 minutter siden, klokken 11:20 UTC
Vind 6 kt fra Nordvest, skiftende mellom Vest og Nord
Temperatur 3°C
Luftfuktighet 70%
Trykk 1017 hPa
Sikt 10 km eller mer
Få skyer i en høyde av 2800 ft
Overskyet i en høyde av 6400 ft

METAR: EFSA 221120Z AUTO 31006KT 280V350 9999 FEW028 OVC064 03/M02 Q1017

Tid: 14:58 (11:58 UTC)


TAF: fraværende

Værobservasjoner og værvarsel for over 4000 flyplasser (METAR- og TAF-rapporter).

Tilgjengelige stasjoner er representert av de røde og gule prikkene på kartet.

Hold musepekeren over prikken for å se navnet på stasjonen.

Klikk så for å se værobservasjoner og -varsler.

For å forandre kartet kan du klikke på den grønne knappen med svart kryss for å zoome inn, på den grønne knappen med strek for å zoome ut, eller på de grønne pilene for å se tilstøtende kart.


METAR-TAF: